sat.trackr.live / text

‹ back to catalog

STARLINK-5999

NORAD 56909 · 2023-083AK

PAYLOAD ACTIVE UNKNOWN

§ Identity

Operator
Country
US
Launch date
2023-06-12
Launch site
AFETR
Launch vehicle
Mass (kg)
RCS (m²)

Purposes: comms

External: N2YO · Heavens-Above · Gunter

§ Orbital elements

Epoch: 2026-05-24T23:56:53.943648Z

Period
94.27 min
Inclination
43.0071°
Eccentricity
0.0001872
Mean motion
15.27577828 rev/d
Perigee alt
481.8 km
Apogee alt
484.3 km
Semi-major
6,861.2 km
B*
3.2086e-5
RAAN
0.1506°
Arg perigee
254.5595°
Mean anomaly
105.5050°
Rev number
16,357

§ Raw data

STARLINK-59991 56909U 23083AK  26144.99784657  .00000621  00000+0  32086-4 0  99982 56909  43.0071   0.1506 0001872 254.5595 105.5050 15.27577828163571

JSON: /api/v1/satellites/56909 · /tle

For live sub-satellite position, see the globe view (requires WebGL).

§ Visibility from observer

Set your observer location to see the next 7 days of passes ≥ 10°. The values pass through the URL so the page stays shareable.

No JS? Fill the form by hand. The geolocation button needs JavaScript.